Location: Peebles
(55.6412°N, 3.1714°W)
Time: 22:15:52
(UTC+01:00)

COSMOS 2251 DEB - Visible Passes

Search period start: 05 June 2023 00:00
Search period end: 15 June 2023 00:00
Orbit: 589 x 695 km, 74.1° (Epoch: 15 February)

Date Brightness Start Highest point End Pass type
(mag) Time Alt. Az. Time Alt. Az. Time Alt. Az.
05 Jun ? 01:39:03 15° SSE 01:42:02 33° ESE 01:45:54 10° NE visible
05 Jun ? 03:16:28 10° SW 03:20:32 41° NW 03:24:38 10° NNE visible
06 Jun ? 01:51:40 16° S 01:54:51 53° ESE 01:59:03 10° NE visible
06 Jun ? 03:29:55 10° WSW 03:33:40 28° NW 03:37:26 10° NNE visible
07 Jun ? 00:27:41 10° SE 00:29:49 14° E 00:31:57 10° ENE visible
07 Jun ? 02:04:08 15° SSW 02:07:39 84° ESE 02:11:58 10° NNE visible
08 Jun ? 00:39:40 13° SE 00:42:16 21° E 00:45:31 10° NE visible
08 Jun ? 02:16:29 12° SW 02:20:25 63° WNW 02:24:43 10° NNE visible
09 Jun ? 00:51:52 16° SSE 00:54:42 33° ESE 00:58:34 10° NE visible
09 Jun ? 02:29:05 10° SW 02:33:09 41° NW 02:37:16 10° NNE visible
10 Jun ? 01:03:57 17° S 01:07:06 52° ESE 01:11:17 10° NE visible
10 Jun ? 02:42:07 10° WSW 02:45:52 29° NW 02:49:40 10° NNE visible
10 Jun ? 23:39:36 10° SE 23:41:41 13° E 23:43:45 10° ENE visible
11 Jun ? 01:15:53 15° SSW 01:19:28 83° ESE 01:23:48 10° NNE visible
11 Jun ? 02:55:14 10° W 02:58:33 21° NW 03:01:53 10° N visible
11 Jun ? 23:50:54 12° SE 23:53:42 21° E 23:56:56 10° NE visible
12 Jun ? 01:27:41 11° SW 01:31:49 64° WNW 01:36:07 10° NNE visible
12 Jun ? 03:08:30 10° WNW 03:11:12 16° NW 03:13:55 10° N visible
13 Jun ? 00:02:33 13° SSE 00:05:43 32° ESE 00:09:33 10° NE visible
13 Jun ? 01:40:03 10° SW 01:44:08 42° NW 01:48:16 10° NNE visible
13 Jun ? 03:21:55 10° WNW 03:23:48 13° NNW 03:25:42 10° N visible
14 Jun ? 00:14:03 13° S 00:17:42 50° ESE 00:21:53 10° NE visible
14 Jun ? 01:52:37 10° WSW 01:56:25 30° NW 02:00:15 10° NNE visible
